Regional Weather Roundup
Issued by NWS

Home | Current Version | Previous Version | Graphics & Text | Print | Product List | Glossary On
Versions: 1 2 3 4 5 6 7 8 9 10 11 12 13 14 15 16 17 18 19 20 21 22 23 24 25 26 27
000
ASUS45 KSLC 180710
RWRUT

UTAH REGIONAL WEATHER ROUNDUP
NATIONAL WEATHER SERVICE SALT LAKE CITY UT
1200 AM MST WED JAN 18 2017

UTZ001>011-023>025-180800-

NORTHERN UTAH

CITY           SKY/WX    TMP DP  RH WIND       PRES   REMARKS
BRIGHAM CITY     N/A     12   6  78 CALM      30.27S
HILL AFB       PTCLDY    17   9  70 E10       30.22S WCI   5
LOGAN          CLEAR      2   0  91 CALM      30.26S FOG
OGDEN          PTCLDY    17   9  70 S8        30.23S WCI   7
SALT LAKE CITY PTCLDY    22  18  85 S3        30.23F
TOOELE VALLEY  PTCLDY    21  21 100 CALM      30.23F FOG
WENDOVER       CLOUDY    21  18  86 CALM      30.24S
HEBER CITY     PTCLDY    -2  -6  84 CALM      30.20S
WEST JORDAN    PTCLDY    21  21 100 S6        30.22F WCI  13

$$

UTZ011>015-024>027-180800-

CENTRAL/NORTHEAST UTAH

CITY           SKY/WX    TMP DP  RH WIND       PRES   REMARKS
PROVO AIRPORT  PTCLDY    19  17  92 CALM      30.26R
MOAB/CANYONLAN CLEAR     31  23  72 CALM      30.18R
DELTA          CLEAR     19  19 100 NE6       30.22S WCI  11
PRICE          PTCLDY    13   4  67 N5        30.16F WCI   5
ROOSEVELT      CLOUDY    18  14  86 W6        30.30S WCI   9
VERNAL         CLOUDY    16  13  88 CALM      30.27F

$$

UTZ013>016-019>022-027-180800-

SOUTHERN UTAH

CITY           SKY/WX    TMP DP  RH WIND       PRES   REMARKS
BRYCE CANYON   PTCLDY     8   3  80 VRB3      30.17S
CEDAR CITY     CLEAR     19  16  88 CALM      30.17F
MILFORD        CLEAR     22  17  81 CALM      30.19F
ST GEORGE      MOSUNNY   36  25  64 CALM      30.20S
HANKSVILLE     PTCLDY    27  25  93 MISG      30.22S
BLANDING       CLEAR     29  28  97 NW5       30.22S WCI  24

$$

REGIONAL REPORTS     COLORADO/ARIZONA

CITY           SKY/WX    TMP DP  RH WIND       PRES   REMARKS
CRAIG, CO      FOG       10   7  87 CALM      30.20S VSB 1/4
GRAND JUNCTION CLOUDY    28  27  96 E3        30.17S
RIFLE, CO      CLOUDY    25  21  85 CALM      30.18F
MONTROSE, CO   CLOUDY    35  31  85 CALM      30.18S
CORTEZ, CO     CLEAR     28  28 100 CALM      30.14S
COLORADO CITY    N/A     28  27  93 SE6       30.19F WCI  22
PAGE, AZ       CLEAR     35  24  64 CALM      30.16S
GRAND CANYON   CLEAR     23  22  96 CALM      30.18R
KINGMAN, AZ    CLEAR     35  21  56 E5        30.15S WCI  31
FLAGSTAFF, AZ  PTCLDY    24  22  91 CALM      30.17F

$$

REGIONAL REPORTS    NEVADA/IDAHO/WYOMING

CITY           SKY/WX    TMP DP  RH WIND       PRES   REMARKS
LAS VEGAS, NV  CLEAR     43  25  49 S3        30.15R
ELY, NY        CLEAR     10   5  80 S13       30.15F WCI  -5
ELKO, NV       MOCLDY     8   3  80 E6        30.17F WCI  -2
POCATELLO, ID  CLOUDY     6   2  83 E6        30.18F WCI  -4
BURLEY, ID     CLEAR     16  10  77 E13       30.11F WCI   2
FORT BRIDGER,    N/A      6   1  81 NW3       30.16S
EVANSTON, WY   CLOUDY    14   5  67 S6        30.13S WCI   5
ROCK SPRINGS,  CLOUDY    -1  -6  79 SW7       30.14S WCI -14

$$




USA.gov is the U.S. government's official web portal to all federal, state and local government web resources and services.